DIAMANT R/B

Satellite information

Favourite Embed

Satellite Type and Status

ROCKET BODYIN ORBIT

Key statistics

Satellite DIAMANT R/B at a glance.

Uptime

21880

Days in orbit

Revolutions

≈ 13.9

Per day

Orbit

LEO

Low Earth Orbit

Inclination

34.2

Latest

Satellite identification and parameters

Extended collection of information and parameters for DIAMANT R/B.

Object identification

Identified? True

Debris? False

Object name: DIAMANT R/B

International designator: 1965-096B

Object number (NORAD): 1805

Object ID (CCSDS): 1805

Country: FRANCE (FR)

Current information (Y/N): Y

RCS size: LARGE

Orbital parameters

Period: 103.82 minutes

Inclination: 34.2439 deg

SMA: 7317.266 km

Apoapsis: 1367.763 km

Periapsis: 510.498 km

RAAN: 146.4118 deg

Eccentricy: 0.05857824

Argument of periapsis: 90.0274 deg

Mean anomaly: 276.7475 deg

Mean motion: 13.87009839 rev/day

Mean motion (dot): 0.00005179 rev/day2

B* drag term: 0.00108345 1/REarth

Two-line elements (TLE)

Creation date: Oct. 21, 2025, 6:24 p.m.

Reference frame: TEME

Reference center: EARTH

Epoch: Oct. 21, 2025, 7:30 a.m. UTC

TLE line 0: 0 DIAMANT R/B

TLE line 1: 1 01805U 65096B 25294.31308081 .00005179 00000-0 10834-2 0 9996

TLE line 2: 2 01805 34.2439 146.4118 0585782 90.0274 276.7475 13.87009839971512

Live tracking on map

Real-time ground track for satellite DIAMANT R/B.

In-orbit conjunctions

A list of the most updated potential collisions computed for object DIAMANT R/B.

Target Orbit TCA Probability of collision Miss distance Type
CZ-6A DEB LEO 2024-11-05 01:03:59 0.0001517168 843.0 (m) DEBRIS
FENGYUN 1C DEB SSO 2024-11-01 15:08:06 0.0001687414 320.0 (m) DEBRIS
DMSP 5D-2 F13 DEB SSO 2024-06-28 13:19:01 0.0001008414 521.0 (m) DEBRIS

Associated space launch

First french satellite

DIAMANT R/B was lifted into orbit during the mission ‘Diamant A | Asterix’, on board a Diamant A space rocket.

The launch took place on Nov. 26, 1965, 2:47 p.m. from Brigitte.

For more information about the launch, click the button.

Launch to space Diamant A | Asterix
Diamant A | Asterix

Agency: N/A

Status: Launch Successful

Launch date: Nov. 26, 1965, 2:47 p.m. UTC

Rocket: Diamant A

Launch pad: Brigitte

Location: Interarmy Special Vehicles Test Centre, French Algeria

...

Latest news about this satellite

There are no fresh news available about this satellite. Check back as we update our databases every day.


Newsletter sign-up

Weekly statistics, charts and insights to help you stay on top of the space industry.